Support us
Login | Signup

Popular TAGs: 2016 2015 2014 2013 720p 1080p m1080p XviD x264 x265 3D DVDrip BDrip MKV 320kbps

Show only:                                            

Sort by: Date | Name | Seeders | Leechers | Comments

04-11-2016 Torrent VA 2015 Boogie Nights 160.92 MB 1 0
04-11-2016 Torrent Taylor's Code 2015 Mirrors 135.08 MB 0 1
04-11-2016 Torrent Kinetic Element 2015 Travelog 160.65 MB 0 1
04-11-2016 Torrent Sanni 2015 Lelu 91.14 MB 0 1
04-11-2016 Torrent Mariah Carey 2009 Memoirs Of An Imperfect Angel 168.17 MB 1 1
04-11-2016 Torrent Heather Nova 2015 The Way It Feels 135.32 MB 0 0
04-11-2016 Torrent Thomas Christ 2015 Apille 122.95 MB 0 1
04-11-2016 Torrent Crippled Black Phoenix 2010 I, Vigilante 111.32 MB 1 0
03-11-2016 Torrent Stevie Stone 2015 Malta Bend 145.01 MB 1 0
03-11-2016 Torrent Buddy Guy 2013 Rhythm & Blues 184.71 MB 2 0
03-11-2016 Torrent Cortex Complex 2015 The Final Great Awakening 78.28 MB 0 2
03-11-2016 Torrent Littlewolf 2012 Littlewolf 87.44 MB 0 1
03-11-2016 Torrent Trinity River Band 2015 Heartstrings 103.56 MB 1 1
03-11-2016 Torrent Victor Wainwright & The Wildroots 2015 Boom Town 101.36 MB 0 0
03-11-2016 Torrent VA 2015 Huk Edm Selection Vol 3 109.71 MB 1 0
03-11-2016 Torrent Rumer 2012 Boys Don't Cry 127.15 MB 0 1
03-11-2016 Torrent Reform The Resistance 2015 DOS 126.87 MB 0 0
03-11-2016 Torrent Partynextdoor 2014 Partynextdoor Two 104.24 MB 9 0
03-11-2016 Torrent The Cars 2011 Move Like This 97.38 MB 0 0
03-11-2016 Torrent Queens of the Stone Age 1998 Queens Of The Stone Age 108.2 MB 5 0
03-11-2016 Torrent Iron Maiden 2013 Cross-Eyed Mary 255.57 MB 3 0
03-11-2016 Torrent All The Cold 2015 Manvantara 126.34 MB 0 2
03-11-2016 Torrent Rico Richie 2015 Realest Story Ever Told 116.35 MB 0 0
03-11-2016 Torrent Breaking Orbit 2015 Transcension 122.2 MB 1 0
03-11-2016 Torrent Guardians Of Time 2015 Rage And Fire 113.56 MB 1 0
03-11-2016 Torrent VA 2015 Eurodance Hot Club Trax 191.17 MB 3 0
03-11-2016 Torrent Dygitals 2015 Dynamite 95.68 MB 0 0
03-11-2016 Torrent Sirenia 2015 The Seventh Life Path 178.79 MB 0 0
03-11-2016 Torrent Queens Of The Stone Age 2013 ...Like Clockwork 107.69 MB 2 0
03-11-2016 Torrent Deacon Blue 2014 A New House 91.22 MB 1 0
03-11-2016 Torrent Tony Rondini 2015 No Use For The Blues 119.9 MB 0 1
03-11-2016 Torrent Marina & the Diamonds 2012 Electra Heart 125.14 MB 1 0
03-11-2016 Torrent Barry Levenson 2015 The Visit 137.88 MB 0 0
03-11-2016 Torrent Running Wild 2013 Resilient 139.44 MB 0 0
03-11-2016 Torrent Ao Logics 2015 Hell Is Empty 99.8 MB 0 0
 «  1 2 3 4 5 ... 20 21 22 23 24 25 26 27 28 ... 137 138 139 140 141  »
  Movie/Films     Animation/Cartoons     TV Shows/Series     Music     Games     Applications     Books     Other  

   How works MfT    Rules    Suggest idea    Request torrent    Privacy Policy    DMCA    Contacts    MfT Status    Friends sites    Is this site safe?   

mkv, HD-Rip , BD-Rip , Blu-Ray , HD Film , hd film , hd films , scarica film gratis , hd torrents , hd torrent , hdtorrents, hdrip , bdrip , Bluray ,

Blu-Ray player, scarica film , scarica torrent , torrent film , film ita, bluray, mux, 1080p, 720p, hdtorrents, torrent ita, torrents ita, HD film ita, HD ita, Blu-Ray ita